User: anonymous   Login
Location: Summit Observatory
(39.5293°N, 75.7290°W)
Time: 13:54:18
(UTC-04:00)
Language:

Gurwin Techsat 1B - Orbit

View from above orbital plane
View from above orbital plane
View from above satellite
View from above satellite

Ground track
Ground track

The orbit data is extracted from the following two-line orbital elements,

1 25397U 98043D   15215.41755091  .00000013  00000-0  24135-4 0  9999
2 25397 098.5229 164.3875 0001540 140.3742 330.8652 14.23555008886516
Epoch (UTC): 03 August 2015 10:01:16
Eccentricity: 0.0001540
inclination: 98.5229°
perigee height: 812 km
apogee height: 814 km
right ascension of ascending node: 164.3875°
argument of perigee: 140.3742°
revolutions per day: 14.23555008
mean anomaly at epoch: 330.8652°
orbit number at epoch: 88651

The dashed part of the orbit path shows where the satellite is in the earth's shadow,  

DLR